QPF
0.00 0.00 0.00 0.00 0.00 0.00 0.00 0.00 0.00 0.00 0.00 0.00 0.00 0.00 0.00 0.00 0.00 0.00 0.00 0.00 0.00 0.00 0.00 0.00 0.00 0.00 0.00 0.00 0.00 0.00 0.00 0.00 0.00 0.00 0.00 0.00 0.00 0.00 0.00 0.00 0.00 0.00 0.00 0.00 0.00 0.00 0.00 0.00 0.00
0.00 0.00 0.00 0.00 0.00 0.00 0.00 0.00 0.00 0.00 0.00 0.00 0.00 0.00 0.00 0.00 0.00 0.00 0.00 0.00 0.00 0.00 0.00 0.00 0.00 0.00 0.00 0.00 0.00 0.00 0.00 0.00 0.00 0.00 0.00 0.00 0.00 0.00 0.00 0.00 0.00 0.00 0.00 0.00 0.00 0.00 0.00 0.00 0.00
0.00 0.00 0.00 0.00 0.00 0.00 0.00 0.00 0.00 0.00 0.00 0.00 0.00 0.00 0.00 0.00 0.00 0.00 0.00 0.00 0.00 0.00 0.00 0.00 0.00 0.00 0.00 0.00 0.00 0.00 0.00 0.00 0.00 0.00 0.00 0.00 0.00 0.00 0.00 0.00 0.00 0.00 0.00 0.00 0.00 0.00 0.00 0.00 0.00
0.00 0.00 0.00 0.00 0.00 0.00 0.00 0.00 0.00 0.00 0.00 0.00 0.00 0.00 0.00 0.00 0.00 0.00 0.00 0.00 0.00 0.00 0.00 0.00 0.00 0.00 0.00 0.00 0.00 0.00 0.00 0.00 0.00 0.00 0.00 0.00 0.00 0.00 0.00 0.00 0.00 0.00 0.00 0.00 0.00 0.00 0.00 0.00 0.00
0.00 0.00 0.00 0.00 0.00 0.00 0.00 0.00 0.00 0.00 0.00 0.00 0.00 0.00 0.00 0.00 0.00 0.00 0.00 0.00 0.00 0.00 0.00 0.00 0.00 0.00 0.00 0.00 0.00 0.00 0.00 0.00 0.00 0.00 0.00 0.00 0.00 0.00 0.00 0.00 0.00 0.00 0.00 0.00 0.00 0.00 0.00 0.00 0.00
0.00 0.00 0.00 0.00 0.00 0.00 0.00 0.00 0.00 0.00 0.00 0.00 0.00 0.00 0.00 0.00 0.00 0.00 0.00 0.00 0.00 0.00 0.00 0.00 0.00 0.00 0.00 0.00 0.00 0.00 0.00 0.00 0.00 0.00 0.00 0.00 0.00 0.00 0.00 0.00 0.00 0.00 0.00 0.00 0.00 0.00 0.00 0.00 0.00
0.00 0.00 0.00 0.00 0.00 0.00 0.00 0.00 0.00 0.00 0.00 0.00 0.00 0.00 0.00 0.00 0.00 0.00 0.00 0.00 0.00 0.00 0.00 0.00 0.00 0.00 0.00 0.00 0.00 0.00 0.00 0.00 0.00 0.00 0.00 0.00 0.00 0.00 0.00 0.00 0.00 0.00 0.00 0.00 0.00 0.00 0.00 0.00 0.00
0.00 0.00 0.00 0.00 0.00 0.00 0.00 0.00 0.00 0.00 0.00 0.00 0.00 0.00 0.00 0.00 0.00 0.00 0.00 0.00 0.00 0.00 0.00 0.00 0.00 0.00 0.00 0.00 0.00 0.00 0.00 0.00 0.00 0.00 0.00 0.00 0.00 0.00 0.00 0.00 0.00 0.00 0.00 0.00 0.00 0.00 0.00 0.00 0.00
0.00 0.00 0.00 0.00 0.00 0.00 0.00 0.00 0.00 0.00 0.00 0.00 0.00 0.00 0.00 0.00 0.00 0.00 0.00 0.00 0.00 0.00 0.00 0.00 0.00 0.00 0.00 0.00 0.00 0.00 0.00 0.00 0.00 0.00 0.00 0.00 0.00 0.00 0.00 0.00 0.00 0.00 0.00 0.00 0.00 0.00 0.00 0.00 0.00
0.00 0.00 0.00 0.00 0.00 0.00 0.00 0.00 0.00 0.00 0.00 0.00 0.00 0.00 0.00 0.00 0.00 0.00 0.00 0.00 0.00 0.00 0.00 0.00 0.00 0.00 0.00 0.00 0.00 0.00 0.00 0.00 0.00 0.00 0.00 0.00 0.00 0.00 0.00 0.00 0.00 0.00 0.00 0.00 0.00 0.00 0.00 0.00 0.00
0.00 0.00 0.00 0.00 0.00 0.00 0.00 0.00 0.00 0.00 0.00 0.00 0.00 0.00 0.00 0.00 0.00 0.00 0.00 0.00 0.00 0.00 0.00 0.00 0.00 0.00 0.00 0.00 0.00 0.00 0.00 0.00 0.00 0.00 0.00 0.00 0.00 0.00 0.00 0.00 0.00 0.00 0.00 0.00 0.00 0.00 0.00 0.00 0.00
0.00 0.00 0.00 0.00 0.00 0.00 0.00 0.00 0.00 0.00 0.00 0.00 0.00 0.00 0.00 0.00 0.00 0.00 0.00 0.00 0.00 0.00 0.00 0.00 0.00 0.00 0.00 0.00 0.00 0.00 0.00 0.00 0.00 0.00 0.00 0.00 0.00 0.00 0.00 0.00 0.00 0.00 0.00 0.00 0.00 0.00 0.00 0.00 0.00
0.00 0.00 0.00 0.00 0.00 0.00 0.00 0.00 0.00 0.00 0.00 0.00 0.00 0.00 0.00 0.00 0.00 0.00 0.00 0.00 0.00 0.00 0.00 0.00 0.00 0.00 0.00 0.00 0.00 0.00 0.00 0.00 0.00 0.00 0.00 0.00 0.00 0.00 0.00 0.00 0.00 0.00 0.00 0.00 0.00 0.00 0.00 0.00 0.00
0.00 0.00 0.00 0.00 0.00 0.00 0.00 0.00 0.00 0.00 0.00 0.00 0.00 0.00 0.00 0.00 0.00 0.00 0.00 0.00 0.00 0.00 0.00 0.00 0.00 0.00 0.00 0.00 0.00 0.00 0.00 0.00 0.00 0.00 0.00 0.00 0.00 0.00 0.00 0.00 0.00 0.00 0.00 0.00 0.00 0.00 0.00 0.00 0.00
0.00 0.00 0.00 0.00 0.00 0.00 0.00 0.00 0.00 0.00 0.00 0.00 0.00 0.00 0.00 0.00 0.00 0.00 0.00 0.00 0.00 0.00 0.00 0.00 0.00 0.00 0.00 0.00 0.00 0.00 0.00 0.00 0.00 0.00 0.00 0.00 0.00 0.00 0.00 0.00 0.00 0.00 0.00 0.00 0.00 0.00 0.00 0.00 0.00
0.00 0.00 0.00 0.00 0.00 0.00 0.00 0.00 0.00 0.00 0.00 0.00 0.00 0.00 0.00 0.00 0.00 0.00 0.00 0.00 0.00 0.00 0.00 0.00 0.00 0.00 0.00 0.00 0.00 0.00 0.00 0.00 0.00 0.00 0.00 0.00 0.00 0.00 0.00 0.00 0.00 0.00 0.00 0.00 0.00 0.00 0.00 0.00 0.00
0.00 0.00 0.00 0.00 0.00 0.00 0.00 0.00 0.00 0.00 0.00 0.00 0.00 0.00 0.00 0.00 0.00 0.00 0.00 0.00 0.00 0.00 0.00 0.00 0.00 0.00 0.00 0.00 0.00 0.00 0.00 0.00 0.00 0.00 0.00 0.00 0.00 0.00 0.00 0.00 0.00 0.00 0.00 0.00 0.00 0.00 0.00 0.00 0.00
0.00 0.00 0.00 0.00 0.00 0.00 0.00 0.00 0.00 0.00 0.00 0.00 0.00 0.00 0.00 0.00 0.00 0.00 0.00 0.00 0.00 0.00 0.00 0.00 0.00 0.00 0.00 0.00 0.00 0.00 0.00 0.00 0.00 0.00 0.00 0.00 0.00 0.00 0.00 0.00 0.00 0.00 0.00 0.00 0.00 0.00 0.00 0.00 0.00
0.00 0.00 0.00 0.00 0.00 0.00 0.00 0.00 0.00 0.00 0.00 0.00 0.00 0.00 0.00 0.00 0.00 0.00 0.00 0.00 0.00 0.00 0.00 0.00 0.00 0.00 0.00 0.00 0.00 0.00 0.00 0.00 0.00 0.00 0.00 0.00 0.00 0.00 0.00 0.00 0.00 0.00 0.00 0.00 0.00 0.00 0.00 0.00 0.00
0.00 0.00 0.00 0.00 0.00 0.00 0.00 0.00 0.00 0.00 0.00 0.00 0.00 0.00 0.00 0.00 0.00 0.00 0.00 0.00 0.00 0.00 0.00 0.00 0.00 0.00 0.00 0.00 0.00 0.00 0.00 0.00 0.00 0.00 0.00 0.00 0.00 0.00 0.00 0.00 0.00 0.00 0.00 0.00 0.00 0.00 0.00 0.00 0.00
0.00 0.00 0.00 0.00 0.00 0.00 0.00 0.00 0.00 0.00 0.00 0.00 0.00 0.00 0.00 0.00 0.00 0.00 0.00 0.00 0.00 0.00 0.00 0.00 0.00 0.00 0.00 0.00 0.00 0.00 0.00 0.00 0.00 0.00 0.00 0.00 0.00 0.00 0.00 0.00 0.00 0.00 0.00 0.00 0.00 0.00 0.00 0.00 0.00
0.00 0.00 0.00 0.00 0.00 0.00 0.00 0.00 0.00 0.00 0.00 0.00 0.00 0.00 0.00 0.00 0.00 0.00 0.00 0.00 0.00 0.00 0.00 0.00 0.00 0.00 0.00 0.00 0.00 0.00 0.00 0.00 0.00 0.00 0.00 0.00 0.00 0.00 0.00 0.00 0.00 0.00 0.00 0.00 0.00 0.00 0.00 0.00 0.00
0.00 0.00 0.00 0.00 0.00 0.00 0.00 0.00 0.00 0.00 0.00 0.00 0.00 0.00 0.00 0.00 0.00 0.00 0.00 0.00 0.00 0.00 0.00 0.00 0.00 0.00 0.01 0.00 0.00 0.00 0.00 0.00 0.00 0.00 0.00 0.00 0.00 0.00 0.00 0.00 0.00 0.00 0.00 0.00 0.00 0.00 0.00 0.00 0.00
0.00 0.00 0.00 0.00 0.00 0.00 0.00 0.00 0.00 0.00 0.00 0.00 0.00 0.00 0.00 0.00 0.00 0.00 0.00 0.00 0.00 0.00 0.00 0.00 0.00 0.01 0.00 0.00 0.00 0.00 0.00 0.00 0.00 0.00 0.00 0.00 0.00 0.00 0.00 0.00 0.00 0.00 0.00 0.00 0.00 0.00 0.00 0.00 0.00
0.00 0.00 0.00 0.00 0.00 0.00 0.00 0.00 0.00 0.00 0.00 0.00 0.00 0.00 0.00 0.00 0.00 0.00 0.00 0.00 0.00 0.00 0.00 0.00 0.00 0.00 0.00 0.00 0.00 0.00 0.00 0.00 0.00 0.00 0.00 0.00 0.00 0.00 0.00 0.00 0.00 0.00 0.00 0.00 0.00 0.00 0.00 0.00 0.00
0.00 0.00 0.00 0.00 0.00 0.00 0.00 0.00 0.00 0.00 0.00 0.00 0.00 0.00 0.00 0.00 0.00 0.00 0.00 0.00 0.00 0.00 0.00 0.00 0.00 0.00 0.00 0.00 0.00 0.00 0.00 0.00 0.00 0.00 0.00 0.00 0.00 0.00 0.00 0.00 0.00 0.00 0.00 0.00 0.00 0.00 0.00 0.00 0.00
0.00 0.00 0.00 0.00 0.00 0.00 0.00 0.00 0.00 0.00 0.00 0.00 0.00 0.00 0.00 0.00 0.00 0.00 0.00 0.00 0.00 0.00 0.00 0.00 0.00 0.00 0.00 0.00 0.00 0.00 0.00 0.00 0.00 0.00 0.00 0.00 0.00 0.00 0.00 0.00 0.00 0.00 0.00 0.00 0.00 0.00 0.00 0.00 0.00
0.00 0.00 0.00 0.00 0.00 0.00 0.00 0.00 0.00 0.00 0.00 0.00 0.00 0.00 0.00 0.00 0.00 0.00 0.00 0.00 0.00 0.00 0.00 0.00 0.00 0.00 0.00 0.00 0.00 0.00 0.00 0.00 0.00 0.00 0.00 0.00 0.00 0.00 0.00 0.00 0.00 0.00 0.00 0.00 0.00 0.00 0.00 0.00 0.00
0.00 0.00 0.00 0.00 0.00 0.00 0.00 0.00 0.00 0.00 0.00 0.00 0.00 0.00 0.00 0.00 0.00 0.00 0.00 0.00 0.00 0.00 0.00 0.00 0.00 0.00 0.00 0.00 0.00 0.00 0.00 0.00 0.00 0.00 0.00 0.00 0.00 0.00 0.00 0.00 0.00 0.00 0.00 0.00 0.00 0.00 0.00 0.00 0.00
0.00 0.00 0.00 0.00 0.00 0.00 0.00 0.00 0.00 0.00 0.00 0.00 0.00 0.00 0.00 0.00 0.00 0.00 0.00 0.00 0.00 0.00 0.00 0.00 0.00 0.00 0.00 0.00 0.00 0.00 0.00 0.00 0.00 0.00 0.00 0.00 0.00 0.00 0.00 0.00 0.00 0.00 0.00 0.00 0.00 0.00 0.01 0.00 0.00
MSLP
1013.69 1013.17 1012.49 1011.71 1009.75 1006.90 1005.78 1006.19 1007.17 1007.69 1008.69 1010.15 1010.55 1010.90 1011.39 1012.68 1013.79 1016.70 1019.22 1019.57 1020.15 1020.89 1021.71 1022.22 1022.96 1023.23 1023.35 1023.44 1023.48 1023.48 1023.47 1023.47 1023.46 1023.45 1023.33 1023.28 1023.17 1023.04 1022.95 1022.75 1022.59 1022.38 1022.13 1021.91 1021.77 1021.70 1021.56 1021.40 1021.15
1012.60 1012.67 1012.05 1009.59 1007.26 1004.91 1005.20 1006.39 1006.71 1007.97 1009.59 1010.83 1011.54 1011.97 1012.37 1013.81 1015.96 1018.23 1019.25 1020.00 1020.47 1021.01 1021.52 1022.27 1023.25 1023.47 1023.65 1023.77 1023.82 1023.79 1023.85 1023.89 1023.87 1023.76 1023.63 1023.44 1023.37 1023.27 1023.18 1023.14 1022.97 1022.76 1022.57 1022.33 1022.24 1022.08 1021.93 1021.77 1021.49
1012.39 1011.99 1009.91 1007.55 1006.16 1005.27 1005.61 1006.32 1007.44 1009.20 1010.32 1010.89 1011.66 1012.67 1013.44 1015.00 1017.00 1018.35 1019.12 1020.07 1020.38 1021.06 1021.71 1022.88 1023.51 1023.73 1023.91 1024.07 1024.17 1024.19 1024.23 1024.23 1024.24 1024.11 1023.83 1023.68 1023.66 1023.63 1023.60 1023.56 1023.43 1023.16 1022.91 1022.73 1022.58 1022.43 1022.24 1022.07 1021.83
1011.80 1011.05 1009.33 1006.73 1005.45 1005.71 1006.13 1006.73 1007.97 1009.52 1010.71 1011.18 1011.79 1012.89 1014.97 1016.52 1017.36 1018.80 1019.80 1020.14 1020.43 1021.18 1021.97 1023.33 1023.65 1023.90 1024.14 1024.31 1024.44 1024.50 1024.60 1024.63 1024.54 1024.34 1024.09 1024.00 1024.01 1024.12 1024.06 1023.87 1023.80 1023.51 1023.33 1023.13 1022.91 1022.75 1022.59 1022.31 1022.06
1011.10 1009.09 1006.85 1005.48 1005.53 1005.80 1006.37 1007.27 1008.16 1009.02 1009.93 1010.88 1011.84 1013.16 1015.06 1017.08 1017.80 1019.22 1019.93 1020.07 1020.76 1021.44 1022.38 1023.27 1023.86 1024.04 1024.37 1024.59 1024.70 1024.79 1024.92 1024.91 1024.79 1024.66 1024.53 1024.44 1024.51 1024.54 1024.31 1024.18 1024.15 1023.90 1023.74 1023.56 1023.33 1023.20 1022.94 1022.71 1022.36
1009.07 1008.20 1005.97 1004.51 1004.99 1005.63 1006.45 1007.54 1008.20 1008.81 1009.89 1011.11 1011.94 1013.12 1015.33 1017.25 1018.09 1019.30 1019.83 1020.46 1021.12 1021.77 1022.40 1023.30 1024.01 1024.24 1024.66 1024.93 1024.97 1025.06 1025.19 1025.20 1025.15 1025.06 1024.94 1024.92 1024.95 1024.86 1024.77 1024.50 1024.41 1024.25 1024.11 1023.91 1023.74 1023.57 1023.25 1023.00 1022.71
1008.40 1006.99 1005.32 1005.08 1004.92 1005.21 1006.40 1007.74 1008.13 1008.65 1009.68 1010.54 1011.41 1012.46 1015.57 1017.07 1018.06 1019.11 1019.75 1020.66 1021.32 1022.01 1022.56 1023.21 1023.71 1024.36 1024.97 1025.24 1025.25 1025.34 1025.43 1025.50 1025.53 1025.53 1025.49 1025.41 1025.38 1025.19 1025.03 1024.84 1024.74 1024.70 1024.53 1024.33 1024.06 1023.87 1023.61 1023.31 1023.01
1008.17 1007.09 1005.63 1005.21 1004.76 1005.26 1007.04 1007.75 1008.31 1008.73 1009.23 1010.91 1011.47 1011.79 1014.21 1016.24 1017.97 1019.01 1019.78 1020.55 1021.36 1021.92 1022.55 1023.00 1023.45 1023.82 1024.49 1025.07 1025.58 1025.74 1025.80 1025.81 1025.84 1025.87 1025.87 1025.74 1025.50 1025.33 1025.27 1025.04 1025.12 1025.07 1024.87 1024.65 1024.41 1024.14 1023.77 1023.38 1023.01
1008.53 1006.69 1004.96 1004.94 1005.05 1005.37 1007.24 1007.51 1008.71 1009.37 1009.84 1010.72 1011.79 1012.31 1013.71 1015.99 1017.77 1018.69 1019.43 1020.26 1021.07 1021.76 1022.32 1022.79 1023.27 1023.79 1024.21 1024.81 1025.67 1025.91 1026.11 1026.10 1026.01 1025.96 1026.05 1025.35 1025.14 1025.12 1025.00 1025.72 1025.55 1025.40 1025.22 1024.94 1024.67 1024.29 1023.81 1023.21 1022.31
1007.72 1006.07 1005.01 1005.13 1005.47 1005.81 1006.89 1007.28 1007.92 1008.90 1009.28 1010.35 1012.17 1013.87 1014.78 1016.46 1017.46 1017.97 1018.58 1019.42 1020.47 1021.21 1021.91 1022.57 1023.22 1023.80 1024.18 1024.67 1025.31 1025.60 1025.69 1025.86 1025.92 1025.92 1025.74 1025.47 1025.76 1025.87 1025.53 1025.63 1025.73 1025.43 1025.24 1024.59 1024.38 1024.00 1023.42 1022.70 1022.05
1007.08 1005.96 1005.43 1005.51 1006.28 1006.39 1006.37 1007.02 1007.73 1007.97 1008.22 1008.64 1010.52 1013.12 1014.87 1015.99 1017.00 1017.61 1018.25 1019.07 1019.97 1020.91 1021.66 1022.35 1023.38 1023.97 1024.10 1024.74 1024.92 1024.99 1025.40 1025.73 1026.01 1026.20 1026.01 1026.15 1025.71 1025.61 1025.23 1025.03 1024.79 1024.57 1024.47 1023.97 1023.69 1023.20 1023.01 1023.06 1022.55
1006.97 1006.26 1005.98 1005.82 1006.69 1006.59 1006.53 1006.92 1007.41 1007.68 1008.13 1009.46 1009.91 1012.33 1014.21 1015.27 1016.24 1017.02 1017.84 1018.82 1019.73 1020.71 1021.63 1022.44 1023.38 1024.21 1024.51 1024.65 1024.66 1025.29 1025.47 1025.65 1025.72 1026.30 1026.28 1026.07 1025.68 1025.72 1025.55 1025.29 1024.87 1024.55 1024.36 1024.23 1023.80 1023.31 1023.31 1022.98 1022.71
1006.95 1006.10 1006.27 1006.43 1006.78 1006.87 1007.30 1006.99 1007.28 1007.60 1008.66 1010.07 1010.70 1012.48 1013.79 1014.80 1015.81 1016.71 1017.59 1018.69 1019.72 1020.75 1021.77 1022.55 1023.41 1024.27 1024.67 1024.83 1025.22 1025.47 1025.72 1025.75 1026.09 1026.21 1026.56 1026.27 1025.99 1025.87 1025.59 1025.37 1025.06 1024.87 1024.66 1024.28 1023.88 1023.58 1023.16 1022.71 1022.43
1006.45 1006.35 1006.25 1006.67 1006.84 1007.11 1007.03 1006.95 1007.78 1007.79 1009.32 1010.39 1011.23 1012.27 1013.45 1014.45 1015.51 1016.58 1017.61 1018.73 1019.96 1020.89 1022.14 1022.95 1023.61 1024.37 1024.71 1025.01 1025.49 1025.72 1025.95 1026.36 1026.17 1026.38 1026.66 1026.73 1026.37 1026.23 1025.63 1025.45 1025.17 1025.12 1024.98 1024.77 1024.23 1023.88 1023.29 1022.62 1022.31
1006.67 1006.44 1006.14 1006.47 1006.91 1006.89 1006.96 1006.29 1006.61 1007.95 1009.13 1010.13 1011.10 1012.33 1013.57 1014.71 1015.97 1016.90 1017.93 1019.07 1020.06 1021.17 1022.45 1023.35 1024.01 1024.59 1024.89 1025.31 1025.67 1025.78 1025.97 1026.15 1026.24 1026.45 1026.89 1026.99 1026.81 1026.46 1026.17 1025.69 1025.58 1025.54 1025.29 1024.99 1024.44 1023.95 1023.33 1022.69 1022.03
1006.56 1006.36 1005.43 1006.06 1006.65 1007.56 1007.13 1005.81 1005.48 1007.89 1008.93 1009.80 1011.19 1012.59 1013.97 1015.23 1016.51 1017.61 1018.71 1019.59 1020.42 1021.50 1022.75 1023.53 1024.04 1024.78 1025.19 1025.62 1025.81 1025.93 1026.36 1026.41 1026.30 1026.57 1026.75 1027.07 1026.93 1026.79 1026.17 1025.87 1025.84 1026.11 1025.41 1025.07 1024.68 1024.17 1023.52 1022.91 1022.17
1006.11 1005.40 1004.94 1005.44 1006.90 1006.97 1007.39 1006.05 1006.17 1007.93 1008.97 1009.74 1011.37 1012.76 1014.29 1015.84 1017.18 1018.18 1019.28 1020.01 1020.89 1022.11 1023.10 1023.73 1024.48 1024.99 1025.47 1026.01 1026.06 1026.45 1026.90 1026.45 1026.49 1026.69 1026.91 1027.26 1027.00 1026.98 1026.62 1026.17 1026.25 1026.21 1025.45 1025.12 1024.91 1024.43 1023.96 1023.07 1022.34
1005.09 1005.44 1005.47 1005.78 1006.47 1006.91 1006.49 1006.07 1005.67 1007.03 1008.72 1009.82 1011.25 1013.01 1014.67 1016.22 1017.40 1018.77 1019.73 1020.69 1021.59 1022.69 1023.48 1024.19 1024.87 1025.58 1025.91 1026.35 1026.65 1026.71 1026.75 1026.73 1026.90 1026.74 1027.12 1027.36 1027.05 1027.23 1026.97 1026.29 1026.49 1026.23 1025.55 1025.31 1025.24 1024.73 1024.09 1023.31 1022.72
1006.72 1006.51 1006.02 1005.97 1006.27 1006.78 1005.90 1005.83 1005.99 1007.87 1009.01 1010.11 1011.64 1013.37 1015.19 1016.70 1018.30 1019.60 1020.59 1021.56 1022.38 1023.40 1024.11 1024.83 1025.50 1026.16 1026.26 1026.30 1026.46 1026.46 1026.45 1026.73 1027.07 1027.09 1027.73 1027.49 1027.59 1027.45 1027.06 1026.69 1026.51 1026.39 1025.83 1025.79 1025.47 1024.89 1024.17 1023.23 1023.01
1006.97 1006.53 1006.02 1005.85 1006.56 1006.77 1005.73 1005.72 1007.57 1008.92 1010.53 1011.79 1012.44 1013.97 1015.91 1017.77 1019.23 1020.49 1021.54 1022.44 1023.18 1023.83 1024.68 1025.35 1025.93 1026.39 1026.50 1026.57 1027.23 1027.03 1026.97 1026.99 1027.20 1027.69 1027.85 1027.87 1027.82 1027.73 1027.37 1027.35 1026.81 1026.66 1026.14 1025.75 1025.55 1025.18 1024.56 1023.75 1023.54
1006.69 1006.54 1006.12 1006.03 1006.39 1006.40 1006.15 1005.31 1007.40 1009.57 1011.67 1013.11 1014.52 1015.48 1016.96 1018.37 1019.73 1021.08 1022.13 1022.97 1023.79 1024.51 1025.16 1025.77 1026.62 1027.16 1027.53 1028.07 1027.91 1027.76 1027.57 1026.93 1026.74 1027.35 1027.27 1027.79 1028.13 1027.95 1027.81 1027.61 1027.25 1026.87 1026.42 1025.88 1025.67 1025.47 1025.04 1024.31 1023.72
1006.43 1006.67 1006.63 1006.29 1006.02 1005.05 1006.03 1005.57 1007.41 1009.28 1011.78 1014.31 1016.03 1017.17 1018.15 1019.27 1020.49 1021.67 1022.70 1023.57 1024.41 1025.27 1026.08 1026.92 1027.50 1027.91 1028.52 1028.61 1028.36 1028.05 1027.34 1027.01 1027.74 1027.58 1027.55 1027.62 1028.07 1028.03 1027.90 1027.78 1027.49 1027.01 1026.55 1026.10 1025.81 1025.60 1025.37 1024.85 1024.11
1006.62 1007.12 1006.78 1006.37 1005.80 1006.07 1005.78 1006.50 1008.49 1010.24 1012.53 1015.08 1017.46 1018.69 1019.55 1020.41 1021.35 1022.38 1023.33 1024.36 1025.27 1025.98 1026.96 1027.67 1028.25 1028.82 1029.32 1028.95 1028.58 1028.05 1027.87 1027.89 1027.95 1027.81 1027.89 1027.76 1027.74 1027.97 1028.05 1027.93 1027.54 1027.07 1026.61 1026.38 1026.17 1025.79 1025.49 1024.96 1024.62
1007.30 1007.09 1006.85 1006.69 1006.17 1005.85 1006.15 1007.59 1010.66 1012.63 1015.51 1016.89 1018.70 1019.98 1020.79 1021.56 1022.38 1023.23 1024.37 1025.26 1025.90 1026.66 1027.57 1028.21 1028.87 1029.42 1029.21 1029.00 1028.88 1028.83 1028.64 1028.43 1028.26 1028.31 1027.93 1027.69 1027.55 1027.48 1027.54 1027.70 1027.31 1027.03 1026.77 1026.35 1025.84 1025.54 1025.25 1025.06 1024.91
1007.17 1006.65 1005.90 1005.72 1005.63 1005.89 1007.57 1008.90 1013.01 1015.55 1017.62 1019.01 1019.94 1021.07 1021.96 1022.66 1023.28 1024.21 1024.97 1025.57 1026.38 1027.30 1027.90 1028.83 1029.47 1029.56 1029.35 1029.26 1029.23 1029.27 1029.11 1029.08 1028.73 1028.43 1028.19 1028.03 1027.86 1027.64 1027.51 1027.65 1027.32 1026.81 1026.73 1026.33 1025.84 1025.28 1025.20 1025.19 1025.27
1006.50 1006.46 1006.15 1006.02 1006.21 1006.71 1008.69 1010.30 1014.75 1017.37 1018.95 1020.41 1021.37 1022.13 1022.74 1023.31 1023.98 1024.54 1025.20 1025.91 1026.99 1027.82 1028.70 1029.32 1029.79 1029.71 1029.65 1029.52 1029.58 1029.52 1029.59 1029.10 1028.81 1028.80 1028.67 1028.35 1028.19 1027.84 1027.91 1027.55 1027.17 1026.82 1026.52 1026.23 1025.71 1025.01 1025.53 1025.53 1025.34
1007.13 1007.06 1007.45 1007.33 1008.25 1008.38 1009.45 1013.07 1015.76 1016.73 1018.90 1020.64 1021.74 1022.56 1023.16 1023.74 1024.31 1024.97 1025.83 1026.61 1027.65 1028.41 1029.17 1029.94 1030.11 1029.99 1029.76 1029.82 1029.83 1029.81 1029.66 1029.51 1029.36 1029.16 1028.98 1028.55 1028.25 1028.03 1027.72 1027.53 1026.99 1026.58 1026.35 1026.05 1025.58 1025.22 1025.53 1025.53 1025.03
1007.72 1008.24 1007.88 1007.72 1008.02 1008.55 1010.11 1012.64 1014.97 1017.07 1018.82 1020.40 1021.68 1022.62 1023.47 1024.07 1024.71 1025.49 1026.29 1027.23 1028.01 1029.16 1030.20 1030.48 1030.43 1030.07 1030.01 1030.09 1030.14 1030.01 1029.97 1029.86 1029.65 1029.35 1029.07 1028.75 1028.38 1027.96 1027.68 1027.25 1026.87 1026.55 1026.25 1025.91 1025.44 1025.35 1025.29 1025.03 1024.63
1008.21 1008.22 1008.79 1008.77 1009.32 1009.45 1010.69 1013.48 1016.95 1018.23 1019.54 1020.64 1021.94 1022.93 1023.64 1024.29 1025.01 1025.80 1026.81 1027.69 1028.75 1029.81 1030.45 1030.81 1030.21 1030.09 1030.15 1030.27 1030.31 1030.25 1030.13 1029.99 1029.72 1029.40 1029.13 1028.80 1028.43 1028.06 1027.60 1027.30 1026.95 1026.57 1026.30 1025.87 1025.58 1025.33 1024.97 1024.44 1023.94
1009.75 1009.87 1009.66 1009.25 1009.90 1011.09 1012.08 1015.22 1017.99 1019.24 1020.29 1021.27 1022.33 1023.34 1023.99 1024.62 1025.33 1026.23 1027.14 1028.11 1029.33 1030.10 1030.63 1030.21 1030.34 1030.26 1030.53 1030.61 1030.65 1030.53 1030.36 1030.17 1029.83 1029.58 1029.35 1029.09 1028.55 1028.13 1027.79 1027.45 1027.09 1026.73 1026.31 1025.90 1025.67 1025.41 1024.74 1023.97 1023.29
Thickness
5794 5797 5803 5798 5787 5804 5792 5791 5799 5787 5783 5783 5785 5778 5774 5767 5760 5744 5726 5723 5716 5707 5698 5693 5685 5681 5677 5674 5671 5669 5665 5662 5660 5657 5654 5651 5649 5647 5646 5643 5642 5640 5638 5637 5634 5632 5630 5629 5628
5800 5800 5799 5805 5794 5799 5795 5801 5794 5793 5785 5781 5775 5771 5768 5754 5746 5726 5722 5718 5710 5703 5697 5689 5680 5676 5672 5668 5664 5661 5657 5654 5651 5648 5646 5645 5642 5640 5637 5634 5631 5629 5627 5625 5623 5621 5618 5616 5615
5802 5804 5800 5805 5798 5787 5785 5801 5796 5786 5784 5779 5771 5771 5762 5746 5737 5727 5724 5714 5708 5700 5692 5681 5674 5670 5666 5661 5657 5653 5649 5646 5643 5640 5639 5637 5634 5630 5627 5623 5621 5619 5617 5615 5612 5609 5607 5605 5603
5799 5800 5805 5799 5792 5801 5797 5802 5797 5781 5777 5780 5775 5759 5751 5743 5734 5724 5716 5710 5705 5696 5687 5675 5670 5664 5660 5654 5649 5646 5641 5638 5635 5633 5631 5629 5625 5620 5617 5614 5610 5609 5607 5604 5601 5598 5595 5593 5591
5802 5806 5798 5800 5794 5804 5808 5804 5798 5784 5782 5776 5773 5755 5744 5735 5734 5721 5712 5708 5700 5691 5681 5671 5664 5659 5653 5647 5643 5639 5634 5630 5628 5624 5622 5619 5614 5610 5607 5604 5599 5598 5595 5592 5589 5585 5582 5580 5578
5796 5804 5792 5799 5799 5807 5807 5802 5795 5788 5782 5772 5765 5757 5742 5735 5728 5717 5710 5702 5693 5684 5676 5666 5658 5652 5646 5640 5636 5632 5627 5623 5619 5616 5613 5609 5604 5599 5595 5593 5589 5587 5583 5580 5577 5572 5569 5566 5563
5792 5795 5796 5797 5799 5803 5802 5803 5792 5788 5780 5773 5776 5758 5739 5731 5727 5717 5708 5696 5688 5678 5670 5662 5655 5646 5639 5633 5629 5624 5619 5615 5610 5606 5602 5598 5593 5588 5585 5582 5578 5573 5570 5566 5563 5559 5554 5551 5549
5800 5797 5790 5797 5798 5795 5798 5798 5798 5789 5784 5781 5778 5762 5742 5736 5724 5714 5704 5694 5683 5675 5667 5659 5651 5644 5635 5628 5621 5616 5611 5606 5601 5596 5592 5587 5582 5579 5575 5572 5566 5561 5556 5552 5548 5543 5540 5537 5534
5803 5785 5789 5792 5794 5800 5799 5792 5791 5790 5778 5775 5769 5766 5756 5738 5722 5710 5700 5691 5681 5672 5663 5655 5647 5640 5632 5623 5614 5608 5602 5598 5593 5588 5581 5580 5576 5572 5567 5557 5552 5547 5542 5538 5533 5530 5526 5524 5525
5787 5786 5793 5811 5809 5800 5797 5796 5792 5781 5777 5769 5756 5748 5745 5729 5718 5709 5700 5690 5679 5670 5661 5652 5642 5633 5626 5619 5610 5603 5598 5592 5585 5579 5574 5571 5564 5557 5552 5546 5540 5535 5529 5526 5520 5516 5515 5514 5512
5791 5784 5804 5807 5805 5805 5802 5795 5797 5786 5778 5786 5767 5747 5736 5726 5716 5707 5698 5688 5678 5668 5658 5648 5636 5627 5621 5612 5606 5600 5592 5584 5576 5569 5564 5557 5554 5547 5543 5537 5532 5526 5520 5514 5510 5507 5503 5497 5495
5774 5797 5801 5806 5800 5800 5796 5800 5788 5790 5786 5782 5782 5758 5739 5727 5718 5708 5697 5686 5676 5664 5652 5641 5629 5618 5612 5606 5600 5591 5584 5576 5569 5559 5552 5547 5542 5535 5529 5523 5518 5512 5506 5500 5496 5493 5487 5484 5481
5775 5792 5797 5798 5795 5795 5793 5792 5788 5785 5786 5776 5771 5753 5738 5729 5719 5709 5698 5685 5672 5658 5645 5634 5622 5611 5603 5597 5589 5581 5573 5567 5557 5548 5539 5532 5527 5521 5516 5510 5504 5497 5491 5487 5483 5478 5474 5471 5468
5786 5787 5791 5790 5791 5790 5785 5788 5780 5784 5775 5764 5758 5749 5739 5728 5717 5705 5692 5678 5664 5652 5636 5624 5613 5603 5595 5587 5579 5571 5563 5553 5545 5536 5526 5518 5513 5506 5503 5496 5489 5482 5475 5470 5466 5462 5459 5458 5455
5782 5772 5785 5783 5783 5782 5786 5781 5777 5779 5771 5760 5753 5744 5733 5722 5710 5697 5685 5670 5658 5644 5628 5614 5603 5594 5586 5578 5569 5562 5553 5544 5532 5523 5513 5506 5499 5494 5488 5482 5474 5467 5460 5456 5451 5447 5445 5443 5443
5767 5771 5766 5778 5778 5771 5774 5764 5791 5776 5764 5756 5746 5734 5722 5712 5699 5686 5673 5661 5650 5636 5620 5607 5596 5585 5576 5567 5560 5551 5539 5531 5522 5512 5504 5495 5488 5481 5476 5469 5461 5451 5448 5442 5437 5432 5428 5426 5425
5762 5754 5770 5772 5769 5765 5757 5761 5780 5763 5754 5750 5737 5727 5714 5699 5686 5676 5663 5652 5640 5625 5610 5600 5587 5577 5567 5558 5550 5537 5525 5519 5512 5504 5493 5483 5477 5469 5461 5456 5447 5439 5435 5428 5421 5416 5412 5410 5408
5756 5750 5759 5757 5760 5760 5758 5763 5783 5766 5752 5744 5734 5719 5704 5689 5678 5665 5653 5640 5628 5614 5602 5590 5579 5567 5558 5548 5540 5526 5519 5511 5501 5493 5482 5472 5466 5455 5447 5442 5433 5426 5422 5414 5405 5400 5397 5396 5392
5747 5743 5744 5760 5765 5750 5760 5763 5767 5754 5746 5738 5725 5710 5694 5680 5666 5651 5639 5626 5615 5602 5591 5579 5566 5554 5547 5541 5532 5523 5513 5501 5489 5479 5468 5461 5450 5441 5434 5428 5421 5413 5408 5399 5391 5387 5384 5383 5375
5740 5738 5744 5758 5754 5748 5760 5760 5744 5736 5723 5716 5715 5702 5682 5664 5649 5636 5624 5612 5602 5591 5578 5567 5555 5544 5536 5528 5516 5507 5498 5487 5475 5464 5456 5446 5437 5428 5421 5413 5408 5400 5393 5387 5379 5373 5369 5366 5357
5738 5733 5740 5741 5746 5751 5748 5758 5730 5724 5710 5702 5690 5684 5669 5654 5639 5625 5613 5602 5591 5578 5567 5556 5542 5531 5520 5509 5501 5493 5482 5478 5472 5457 5450 5437 5424 5416 5407 5400 5393 5385 5379 5374 5367 5359 5353 5349 5342
5726 5741 5738 5737 5736 5739 5749 5733 5727 5723 5704 5682 5670 5662 5654 5643 5630 5616 5602 5589 5577 5564 5552 5539 5527 5517 5504 5496 5489 5478 5475 5470 5453 5446 5437 5426 5414 5404 5396 5387 5379 5372 5366 5361 5355 5347 5339 5333 5328
5729 5735 5734 5735 5736 5731 5738 5729 5710 5717 5694 5676 5654 5646 5638 5629 5618 5603 5590 5575 5562 5550 5536 5523 5511 5500 5490 5484 5476 5470 5463 5455 5443 5434 5424 5415 5406 5395 5383 5374 5366 5360 5355 5349 5342 5335 5326 5320 5312
5732 5728 5728 5728 5729 5711 5729 5722 5680 5682 5661 5659 5644 5632 5623 5614 5602 5590 5575 5562 5551 5537 5522 5511 5498 5485 5481 5474 5466 5456 5449 5440 5431 5420 5413 5405 5395 5386 5375 5364 5357 5351 5345 5340 5335 5327 5318 5309 5300
5724 5719 5705 5702 5708 5705 5717 5707 5665 5658 5643 5636 5631 5619 5609 5598 5588 5575 5564 5554 5541 5525 5513 5497 5484 5476 5470 5462 5453 5443 5435 5425 5417 5409 5401 5392 5382 5373 5364 5354 5349 5344 5336 5331 5325 5319 5309 5298 5288
5722 5721 5704 5679 5693 5707 5705 5687 5654 5639 5633 5622 5614 5605 5596 5588 5577 5568 5558 5546 5529 5515 5499 5485 5474 5466 5459 5451 5441 5432 5421 5415 5407 5397 5388 5379 5369 5362 5351 5347 5341 5336 5329 5322 5317 5311 5298 5288 5279
5710 5705 5715 5695 5685 5687 5693 5659 5644 5654 5633 5616 5604 5596 5588 5580 5571 5560 5547 5534 5517 5503 5488 5473 5463 5456 5449 5440 5430 5420 5412 5403 5394 5385 5376 5369 5361 5353 5346 5339 5335 5330 5323 5315 5309 5302 5290 5280 5274
5712 5711 5695 5700 5671 5670 5679 5664 5649 5638 5627 5615 5602 5591 5580 5572 5562 5551 5538 5522 5508 5490 5472 5461 5453 5448 5440 5429 5419 5411 5402 5393 5384 5375 5367 5360 5352 5346 5340 5334 5329 5323 5316 5309 5302 5293 5284 5276 5269
5703 5699 5693 5695 5684 5673 5669 5652 5632 5625 5617 5608 5595 5585 5576 5567 5555 5543 5527 5512 5495 5477 5463 5452 5449 5441 5431 5421 5411 5401 5392 5383 5375 5367 5359 5352 5345 5339 5334 5328 5322 5317 5309 5302 5293 5286 5279 5273 5267
5692 5682 5687 5678 5666 5664 5666 5636 5621 5612 5606 5599 5588 5577 5569 5560 5548 5535 5520 5502 5483 5468 5455 5453 5441 5433 5421 5411 5400 5391 5383 5374 5366 5358 5350 5342 5338 5332 5326 5321 5315 5310 5303 5295 5286 5279 5274 5270 5265